Weather History for Kars, Turkey

Change the Weather History Date:

Saturday, June 29, 2013

  Actual Average Record
Temperature  
Mean Temperature 61 °F -  
Max Temperature 77 °F 77 °F - ()
Min Temperature 45 °F 49 °F - ()
Degree Days  
Heating Degree Days 4    
Growing Degree Days 11 (Base 50)    
Moisture  
Dew Point 48 °F    
Average Humidity 62    
Maximum Humidity 100    
Minimum Humidity 20    
Precipitation  
Precipitation 0.00 in 0.07 in - ()
Sea Level Pressure  
Sea Level Pressure 30.04 in    
Wind  
Wind Speed 3 mph ()    
Max Wind Speed 10 mph    
Max Gust Speed -    
Visibility 6.2 miles    
Events      
T = Trace of Precipitation, MM = Missing Value Source: Averaged Metar Reports

Daily Weather History Graph

Daily Weather History Graph

Search for Another Location

Airport:

Trip Planner

Search our weather history database for the weather conditions in past years. The results will help you decide how hot, cold, wet, or windy it might be!

Date:

Astronomy

Jun. 29, 2013 Rise Set
Actual Time 4:39 AM EEST 7:42 PM EEST
Civil Twilight 4:06 AM EEST 8:15 PM EEST
Nautical Twilight 3:24 AM EEST 8:57 PM EEST
Astronomical Twilight 2:34 AM EEST 9:47 PM EEST
Moon 11:29 PM EEST (6/29) 11:29 AM EEST (6/29)
Length of Visible Light 16h 08m
Length of Day
15h 02m
Waning Gibbous, 59% of the Moon is Illuminated
Jun 29
Waning Gibbous
Jun 30
Last Quarter
Jul 8
New
Jul 16
First Quarter
Jul 22
Full

Hourly Weather History & Observations

Time (EEST) Temp. Dew Point Humidity Pressure Visibility Wind Dir Wind Speed Gust Speed Precip Events Conditions
12:50 AM 53.6 °F 48.2 °F 82% 30.06 in - NNE 10.4 mph - N/A   Clear
1:50 AM 50.0 °F 46.4 °F 87% 30.06 in - SSE 1.2 mph - N/A   Clear
3:00 AM 48 °F 47 °F 93%  in 6 mi NW 2.3 mph - -  
3:50 AM 46.4 °F 44.6 °F 93% 30.06 in - Calm Calm - N/A   Clear
4:50 AM 46.4 °F 46.4 °F 100% 30.09 in - Calm Calm - N/A   Clear
5:50 AM 48.2 °F 48.2 °F 100% 30.09 in - Calm Calm - N/A   Clear
6:50 AM 51.8 °F 48.2 °F 88% 30.06 in - Calm Calm - N/A   Clear
7:50 AM 57.2 °F 51.8 °F 82% 30.06 in - Calm Calm - N/A   Clear
8:50 AM 64.4 °F 50.0 °F 59% 30.06 in 6.2 mi Calm Calm - N/A   Partly Cloudy
9:00 AM 64 °F 50 °F 51%  in 6 mi Calm Calm - -   Scattered Clouds
9:50 AM 68.0 °F 51.8 °F 56% 30.06 in 6.2 mi Calm Calm - N/A   Partly Cloudy
10:50 AM 69.8 °F 53.6 °F 56% 30.06 in 6.2 mi Variable 2.3 mph - N/A   Partly Cloudy
11:50 AM 71.6 °F 50.0 °F 46% 30.04 in 6.2 mi Variable 3.5 mph - N/A   Scattered Clouds
12:50 PM 73.4 °F 46.4 °F 38% 30.04 in 6.2 mi Variable 2.3 mph - N/A   Scattered Clouds
1:50 PM 75.2 °F 41.0 °F 29% 30.04 in 6.2 mi Variable 2.3 mph - N/A   Scattered Clouds
2:50 PM 75.2 °F 42.8 °F 31% 30.01 in 6.2 mi East 3.5 mph - N/A   Scattered Clouds
3:00 PM 75 °F 42 °F 20%  in 6 mi East 3.5 mph - -   Partly Cloudy
3:50 PM 77.0 °F 39.2 °F 26% 30.01 in 6.2 mi Calm Calm - N/A   Scattered Clouds
4:50 PM 75.2 °F 42.8 °F 31% 30.01 in 6.2 mi NE 8.1 mph - N/A   Partly Cloudy
5:50 PM 73.4 °F 42.8 °F 33% 30.01 in 6.2 mi NE 6.9 mph - N/A   Partly Cloudy
6:50 PM 69.8 °F 46.4 °F 43% 30.01 in 6.2 mi NE 5.8 mph - N/A   Scattered Clouds
7:50 PM 64.4 °F 48.2 °F 56% 30.04 in 6.2 mi WNW 8.1 mph - N/A   Scattered Clouds
8:50 PM 60.8 °F 51.8 °F 72% 30.04 in 6.2 mi East 8.1 mph - N/A   Mostly Cloudy
9:00 PM 61 °F 51 °F 61%  in 6 mi East 8.1 mph - -   Mostly Cloudy
9:50 PM 59.0 °F 51.8 °F 77% 30.04 in 6.2 mi Variable 2.3 mph - N/A   Scattered Clouds
10:50 PM 59.0 °F 51.8 °F 77% 30.04 in 6.2 mi East 4.6 mph - N/A   Scattered Clouds
11:50 PM 57.2 °F 51.8 °F 82% 30.04 in 6.2 mi WNW 4.6 mph - N/A   Scattered Clouds